FDX788B CYYZ-KJFK

Flight info

Callsign FDX788B
Flight time N/A
Altitude 35000
Route KEPTA3 BMPAH DCT AEVON DCT EXTOL Q140 MEMMS PUCKY1
Aircraft MD11/H-SDE1E2E3FGHIJ2J3J4J5M1RWXY/LB1D1

Departure

Time 2026-05-06 02:09
Airport Toronto Pearson International Airport (CYYZ)

Arrival

Time N/A
Airport John F. Kennedy International Airport (KJFK)
Time Latitude Longitude Altitude Speed Heading
2026-05-06 01:40 43.68259 -79.65705 563 ft 0 kts 136°
2026-05-06 01:57 43.68267 -79.65716 563 ft 2 kts 144°
2026-05-06 01:57 43.68280 -79.65725 563 ft 2 kts 165°
2026-05-06 01:57 43.68295 -79.65728 563 ft 2 kts 180°
2026-05-06 01:57 43.68310 -79.65726 563 ft 2 kts 195°
2026-05-06 01:58 43.68324 -79.65717 563 ft 2 kts 211°
2026-05-06 01:58 43.68336 -79.65705 563 ft 2 kts 226°
2026-05-06 01:58 43.68339 -79.65700 563 ft 0 kts 228°
2026-05-06 02:00 43.68339 -79.65701 563 ft 0 kts 228°
2026-05-06 02:01 43.68331 -79.65712 563 ft 3 kts 228°
2026-05-06 02:01 43.68307 -79.65750 564 ft 7 kts 228°
2026-05-06 02:01 43.68263 -79.65816 565 ft 11 kts 220°
2026-05-06 02:01 43.68196 -79.65830 565 ft 9 kts 148°
2026-05-06 02:02 43.68144 -79.65763 564 ft 10 kts 118°
2026-05-06 02:02 43.68161 -79.65670 562 ft 12 kts 57°
2026-05-06 02:02 43.68225 -79.65578 560 ft 14 kts 38°
2026-05-06 02:02 43.68306 -79.65467 555 ft 18 kts 46°
2026-05-06 02:03 43.68392 -79.65320 552 ft 20 kts 47°
2026-05-06 02:03 43.68514 -79.65266 551 ft 18 kts 10°
2026-05-06 02:03 43.68631 -79.65208 552 ft 17 kts 39°
2026-05-06 02:03 43.68723 -79.65092 553 ft 18 kts 39°
2026-05-06 02:04 43.68821 -79.64984 555 ft 17 kts 45°
2026-05-06 02:04 43.68909 -79.64858 554 ft 18 kts 46°
2026-05-06 02:04 43.69001 -79.64725 556 ft 18 kts 46°
2026-05-06 02:04 43.69093 -79.64588 554 ft 20 kts 47°
2026-05-06 02:05 43.69193 -79.64436 552 ft 22 kts 47°
2026-05-06 02:05 43.69302 -79.64276 551 ft 23 kts 45°
2026-05-06 02:05 43.69388 -79.64085 550 ft 23 kts 64°
2026-05-06 02:05 43.69452 -79.63875 549 ft 24 kts 64°
2026-05-06 02:06 43.69507 -79.63717 549 ft 12 kts 71°
2026-05-06 02:06 43.69498 -79.63618 549 ft 0 kts 121°
2026-05-06 02:06 43.69497 -79.63616 549 ft 0 kts 121°
2026-05-06 02:07 43.69493 -79.63606 549 ft 1 kts 123°
2026-05-06 02:07 43.69482 -79.63589 549 ft 3 kts 132°
2026-05-06 02:07 43.69457 -79.63554 549 ft 7 kts 135°
2026-05-06 02:07 43.69407 -79.63528 549 ft 8 kts 195°
2026-05-06 02:08 43.69334 -79.63612 547 ft 31 kts 223°
2026-05-06 02:08 43.69000 -79.64093 544 ft 107 kts 225°
2026-05-06 02:08 43.68325 -79.65065 545 ft 169 kts 226°
2026-05-06 02:08 43.67457 -79.66344 811 ft 189 kts 225°
2026-05-06 02:09 43.66535 -79.67727 1287 ft 197 kts 232°
2026-05-06 02:09 43.65715 -79.69232 1949 ft 199 kts 230°
2026-05-06 02:09 43.64831 -79.70613 2796 ft 191 kts 227°
2026-05-06 02:09 43.63927 -79.71925 3513 ft 191 kts 227°
2026-05-06 02:10 43.62979 -79.73267 3991 ft 206 kts 223°
2026-05-06 02:10 43.61646 -79.74249 4276 ft 234 kts 192°
2026-05-06 02:10 43.59956 -79.74110 4867 ft 255 kts 162°
2026-05-06 02:10 43.58427 -79.72783 5602 ft 274 kts 135°
2026-05-06 02:11 43.57386 -79.70544 6374 ft 288 kts 116°
2026-05-06 02:11 43.56564 -79.67983 7138 ft 297 kts 122°
2026-05-06 02:11 43.55471 -79.65612 8012 ft 299 kts 131°
2026-05-06 02:11 43.54470 -79.63014 8873 ft 316 kts 110°
2026-05-06 02:12 43.54030 -79.60066 9824 ft 323 kts 104°
2026-05-06 02:12 43.53611 -79.56992 10429 ft 338 kts 108°
2026-05-06 02:12 43.53020 -79.53731 10687 ft 366 kts 111°
2026-05-06 02:12 43.52279 -79.50226 10889 ft 396 kts 111°
2026-05-06 02:13 43.51457 -79.46469 11025 ft 427 kts 111°
2026-05-06 02:13 43.50583 -79.42462 11623 ft 442 kts 111°
2026-05-06 02:13 43.49707 -79.38433 12386 ft 451 kts 111°
2026-05-06 02:13 43.48795 -79.34232 13251 ft 458 kts 112°
2026-05-06 02:14 43.47892 -79.30073 14051 ft 464 kts 112°
2026-05-06 02:14 43.46963 -79.25807 14883 ft 469 kts 112°
2026-05-06 02:14 43.46031 -79.21516 15681 ft 474 kts 111°
2026-05-06 02:14 43.45075 -79.17111 16413 ft 481 kts 111°
2026-05-06 02:15 43.44107 -79.12731 17156 ft 484 kts 114°
2026-05-06 02:15 43.42880 -79.08447 17809 ft 486 kts 119°
2026-05-06 02:15 43.41517 -79.04195 18550 ft 489 kts 120°
2026-05-06 02:15 43.40140 -78.99937 19261 ft 494 kts 119°
2026-05-06 02:16 43.38760 -78.95621 19901 ft 499 kts 118°
2026-05-06 02:16 43.37383 -78.91209 20526 ft 504 kts 118°
2026-05-06 02:16 43.36009 -78.86787 21144 ft 509 kts 118°
2026-05-06 02:16 43.34614 -78.82301 21758 ft 514 kts 118°
2026-05-06 02:17 43.33218 -78.77802 22376 ft 518 kts 118°
2026-05-06 02:17 43.31802 -78.73238 22975 ft 521 kts 118°
2026-05-06 02:17 43.30370 -78.68692 23528 ft 525 kts 118°
2026-05-06 02:17 43.28889 -78.64081 24036 ft 530 kts 118°
2026-05-06 02:18 43.27406 -78.59454 24582 ft 534 kts 118°
2026-05-06 02:18 43.25912 -78.54778 25125 ft 539 kts 118°
2026-05-06 02:18 43.24430 -78.50111 25540 ft 545 kts 118°
2026-05-06 02:18 43.22925 -78.45323 26103 ft 548 kts 118°
2026-05-06 02:19 43.21430 -78.40575 26983 ft 543 kts 118°
2026-05-06 02:19 43.19816 -78.35946 27605 ft 541 kts 123°
2026-05-06 02:19 43.17966 -78.31499 28265 ft 536 kts 128°
2026-05-06 02:19 43.15854 -78.27305 28958 ft 530 kts 135°
2026-05-06 02:20 43.11232 -78.19556 29862 ft 526 kts 137°
2026-05-06 02:20 43.08890 -78.15707 29861 ft 526 kts 137°
2026-05-06 02:21 43.04141 -78.08141 30409 ft 524 kts 143°
2026-05-06 02:21 43.01468 -78.04763 31027 ft 521 kts 144°
2026-05-06 02:21 42.98994 -78.01208 31524 ft 529 kts 137°
2026-05-06 02:21 42.96627 -77.97332 32131 ft 531 kts 134°
2026-05-06 02:22 42.94466 -77.93231 32665 ft 535 kts 129°
2026-05-06 02:22 42.92479 -77.88969 33171 ft 536 kts 126°
2026-05-06 02:22 42.90744 -77.84452 33628 ft 542 kts 117°
2026-05-06 02:22 42.89370 -77.79658 34064 ft 545 kts 112°
2026-05-06 02:23 42.88224 -77.74787 34520 ft 546 kts 110°